Location: Newark
(46.1292°N, 1.0086°W)
Time: 15:27:40
(UTC+00:00)

Vanguard 3 - Pass Details

Date: 22 November 2019
Orbit: 507 x 3263 km, 33.3° (Epoch: 05 December)

Event Time Altitude Azimuth Distance (km) Brightness Sun altitude
Rises 15:10:08 0° 256° (WSW) 7,011 13.1 9.8°
Reaches altitude 10° 15:14:48 10° 252° (WSW) 6,128 13.1 9.2°
Maximum altitude 15:33:44 54° 183° (S) 3,516 10.9 6.7°
Drops below altitude 10° 15:48:43 10° 112° (ESE) 4,963 10.9 4.6°
Sets 15:52:03 0° 108° (ESE) 5,656 11.1 4.1°
